| time (UTC) | temp F | wind direction | speed MPH | gust MPH | rain 1hr in | rain 24hr in | rain mn in | humidity % | barometer mb |
| 20260507201517 | 69 | 247 | 12.0 | 20.0 | 0.00 | 0.00 | 0.00 | 27 | 1012.3 |
| 20260507201017 | 69 | 270 | 9.0 | 16.0 | 0.00 | 0.00 | 0.00 | 29 | 1012.4 |
| 20260507200516 | 68 | 247 | 12.0 | 17.0 | 0.00 | 0.00 | 0.00 | 28 | 1012.3 |
| 20260507200016 | 69 | 225 | 11.0 | 19.0 | 0.00 | 0.00 | 0.00 | 28 | 1012.4 |
| 20260507195516 | 69 | 270 | 6.0 | 10.0 | 0.00 | 0.00 | 0.00 | 29 | 1012.5 |
| 20260507195018 | 68 | 270 | 6.0 | 11.0 | 0.00 | 0.00 | 0.00 | 27 | 1012.5 |
| 20260507194516 | 68 | 247 | 10.0 | 18.0 | 0.00 | 0.00 | 0.00 | 27 | 1012.6 |
| 20260507194036 | 67 | 247 | 11.0 | 21.0 | 0.00 | 0.00 | 0.00 | 30 | 1012.5 |
| 20260507193516 | 67 | 225 | 5.0 | 14.0 | 0.00 | 0.00 | 0.00 | 28 | 1012.5 |
| 20260507193016 | 66 | 225 | 5.0 | 12.0 | 0.00 | 0.00 | 0.00 | 30 | 1012.5 |
| 20260507192516 | 67 | 180 | 7.0 | 12.0 | 0.00 | 0.01 | 0.00 | 28 | 1012.7 |
| 20260507192018 | 67 | 202 | 6.0 | 13.0 | 0.00 | 0.03 | 0.00 | 30 | 1012.8 |
| 20260507191517 | 66 | 180 | 8.0 | 15.0 | 0.00 | 0.06 | 0.00 | 30 | 1013.0 |
| 20260507191016 | 66 | 202 | 8.0 | 16.0 | 0.00 | 0.08 | 0.00 | 34 | 1013.1 |
| 20260507190516 | 66 | 202 | 8.0 | 17.0 | 0.00 | 0.10 | 0.00 | 31 | 1013.2 |
| 20260507190017 | 66 | 225 | 8.0 | 13.0 | 0.00 | 0.13 | 0.00 | 29 | 1013.3 |
| 20260507185516 | 66 | 225 | 9.0 | 15.0 | 0.00 | 0.15 | 0.00 | 29 | 1013.3 |
| 20260507185016 | 66 | 225 | 5.0 | 12.0 | 0.00 | 0.18 | 0.00 | 29 | 1013.3 |
| 20260507184535 | 66 | 180 | 5.0 | 9.0 | 0.00 | 0.20 | 0.00 | 30 | 1013.5 |
| 20260507184016 | 66 | 157 | 6.0 | 11.0 | 0.00 | 0.22 | 0.00 | 29 | 1013.6 |
| 20260507183517 | 67 | 225 | 7.0 | 13.0 | 0.00 | 0.25 | 0.00 | 30 | 1013.9 |
| 20260507183016 | 65 | 180 | 5.0 | 10.0 | 0.00 | 0.27 | 0.00 | 29 | 1013.7 |
| 20260507182536 | 65 | 225 | 9.0 | 14.0 | 0.00 | 0.30 | 0.00 | 29 | 1013.8 |
| 20260507182015 | 66 | 202 | 9.0 | 14.0 | 0.00 | 0.32 | 0.00 | 33 | 1014.0 |
| 20260507181537 | 65 | 247 | 9.0 | 12.0 | 0.00 | 0.35 | 0.00 | 31 | 1014.0 |
| 20260507181015 | 65 | 225 | 10.0 | 14.0 | 0.00 | 0.38 | 0.00 | 33 | 1014.3 |
| 20260507180516 | 65 | 225 | 11.0 | 15.0 | 0.00 | 0.40 | 0.00 | 34 | 1014.3 |
| 20260507180016 | 64 | 225 | 9.0 | 16.0 | 0.00 | 0.43 | 0.00 | 34 | 1014.3 |
| 20260507175516 | 62 | 225 | 9.0 | 13.0 | 0.00 | 0.45 | 0.00 | 34 | 1014.3 |
| 20260507175016 | 62 | 225 | 9.0 | 12.0 | 0.00 | 0.48 | 0.00 | 37 | 1014.3 |
| 20260507174556 | 61 | 225 | 10.0 | 12.0 | 0.00 | 0.50 | 0.00 | 36 | 1014.3 |
| 20260507174016 | 61 | 225 | 9.0 | 12.0 | 0.00 | 0.52 | 0.00 | 38 | 1014.3 |
| 20260507173516 | 60 | 202 | 9.0 | 14.0 | 0.00 | 0.53 | 0.00 | 37 | 1014.2 |
| 20260507173016 | 60 | 202 | 10.0 | 14.0 | 0.00 | 0.55 | 0.00 | 38 | 1014.4 |
| 20260507172516 | 60 | 202 | 8.0 | 13.0 | 0.00 | 0.56 | 0.00 | 37 | 1014.5 |
| 20260507172036 | 60 | 202 | 8.0 | 11.0 | 0.00 | 0.57 | 0.00 | 38 | 1014.5 |
| 20260507171515 | 60 | 202 | 7.0 | 10.0 | 0.00 | 0.58 | 0.00 | 40 | 1014.7 |
| 20260507171017 | 59 | 225 | 9.0 | 12.0 | 0.00 | 0.59 | 0.00 | 42 | 1014.7 |
| 20260507170516 | 58 | 225 | 11.0 | 15.0 | 0.00 | 0.60 | 0.00 | 41 | 1014.7 |
| 20260507170018 | 58 | 225 | 12.0 | 16.0 | 0.00 | 0.61 | 0.00 | 40 | 1014.9 |
| 20260507165517 | 58 | 225 | 10.0 | 13.0 | 0.00 | 0.62 | 0.00 | 43 | 1015.0 |
| 20260507165059 | 57 | 225 | 12.0 | 17.0 | 0.00 | 0.63 | 0.00 | 41 | 1014.9 |
| 20260507164515 | 57 | 225 | 12.0 | 17.0 | 0.00 | 0.63 | 0.00 | 40 | 1015.0 |
| 20260507164037 | 57 | 225 | 10.0 | 15.0 | 0.00 | 0.63 | 0.00 | 44 | 1014.9 |
| 20260507163517 | 56 | 225 | 11.0 | 14.0 | 0.00 | 0.64 | 0.00 | 44 | 1015.0 |
| 20260507163037 | 56 | 225 | 12.0 | 17.0 | 0.00 | 0.64 | 0.00 | 45 | 1014.9 |
| 20260507162517 | 55 | 225 | 12.0 | 17.0 | 0.00 | 0.65 | 0.00 | 44 | 1014.9 |
| 20260507162015 | 55 | 202 | 11.0 | 16.0 | 0.00 | 0.66 | 0.00 | 41 | 1014.9 |
| 20260507161518 | 55 | 202 | 11.0 | 18.0 | 0.00 | 0.66 | 0.00 | 40 | 1015.2 |
| 20260507161018 | 56 | 225 | 9.0 | 15.0 | 0.00 | 0.67 | 0.00 | 40 | 1015.3 |
| 20260507160537 | 56 | 247 | 8.0 | 14.0 | 0.00 | 0.67 | 0.00 | 40 | 1015.3 |
| 20260507160017 | 56 | 247 | 10.0 | 17.0 | 0.00 | 0.67 | 0.00 | 40 | 1015.4 |
| 20260507155518 | 55 | 247 | 10.0 | 14.0 | 0.00 | 0.68 | 0.00 | 40 | 1015.4 |
| 20260507155016 | 55 | 247 | 9.0 | 15.0 | 0.00 | 0.68 | 0.00 | 42 | 1015.5 |
| 20260507154517 | 55 | 247 | 3.0 | 11.0 | 0.00 | 0.69 | 0.00 | 47 | 1015.6 |
| 20260507154017 | 55 | 0.0 | 1.0 | 0.00 | 0.69 | 0.00 | 52 | 1015.7 | |
| 20260507153537 | 54 | 112 | 1.0 | 3.0 | 0.00 | 0.70 | 0.00 | 51 | 1015.6 |
| 20260507153017 | 54 | 112 | 6.0 | 8.0 | 0.00 | 0.70 | 0.00 | 48 | 1015.6 |
| 20260507152517 | 56 | 202 | 3.0 | 7.0 | 0.00 | 0.70 | 0.00 | 47 | 1015.7 |
| 20260507152017 | 57 | 225 | 6.0 | 12.0 | 0.00 | 0.71 | 0.00 | 44 | 1015.5 |
| 20260507151517 | 56 | 225 | 4.0 | 9.0 | 0.00 | 0.71 | 0.00 | 45 | 1015.5 |
| 20260507151017 | 55 | 270 | 2.0 | 4.0 | 0.00 | 0.71 | 0.00 | 45 | 1015.7 |
| 20260507150517 | 54 | 0.0 | 2.0 | 0.00 | 0.71 | 0.00 | 52 | 1015.9 | |
| 20260507150017 | 54 | 0.0 | 1.0 | 0.00 | 0.71 | 0.00 | 49 | 1015.8 | |
| 20260507145517 | 54 | 0.0 | 2.0 | 0.00 | 0.71 | 0.00 | 45 | 1015.9 | |
| 20260507145017 | 54 | 0 | 1.0 | 2.0 | 0.00 | 0.71 | 0.00 | 50 | 1016.0 |
| 20260507144518 | 53 | 0.0 | 2.0 | 0.00 | 0.71 | 0.00 | 49 | 1016.1 | |
| 20260507144017 | 53 | 22 | 1.0 | 2.0 | 0.00 | 0.71 | 0.00 | 50 | 1016.1 |
| 20260507143517 | 53 | 22 | 1.0 | 4.0 | 0.00 | 0.71 | 0.00 | 50 | 1016.0 |
| 20260507143017 | 53 | 0.0 | 1.0 | 0.00 | 0.71 | 0.00 | 46 | 1016.1 | |
| 20260507142518 | 53 | 0.0 | 1.0 | 0.00 | 0.71 | 0.00 | 44 | 1016.0 | |
| 20260507142037 | 53 | 0.0 | 2.0 | 0.00 | 0.71 | 0.00 | 42 | 1015.9 | |
| 20260507141518 | 53 | 135 | 1.0 | 2.0 | 0.00 | 0.71 | 0.00 | 43 | 1015.9 |
| 20260507141017 | 52 | 0.0 | 2.0 | 0.00 | 0.72 | 0.00 | 44 | 1015.9 | |
| 20260507140517 | 51 | 0.0 | 2.0 | 0.00 | 0.72 | 0.00 | 48 | 1016.0 | |
| 20260507140017 | 51 | 135 | 1.0 | 3.0 | 0.00 | 0.72 | 0.00 | 46 | 1015.9 |
| 20260507135557 | 50 | 202 | 1.0 | 2.0 | 0.00 | 0.72 | 0.00 | 49 | 1016.1 |
| 20260507135017 | 50 | 112 | 1.0 | 3.0 | 0.00 | 0.72 | 0.00 | 47 | 1016.1 |
| 20260507134517 | 50 | 112 | 1.0 | 2.0 | 0.00 | 0.72 | 0.00 | 46 | 1016.1 |
| 20260507134057 | 51 | 112 | 1.0 | 2.0 | 0.00 | 0.72 | 0.00 | 45 | 1016.0 |
| 20260507133519 | 51 | 112 | 3.0 | 5.0 | 0.00 | 0.72 | 0.00 | 42 | 1015.9 |
| 20260507133019 | 52 | 180 | 2.0 | 4.0 | 0.00 | 0.72 | 0.00 | 42 | 1016.0 |
| 20260507132517 | 52 | 135 | 3.0 | 6.0 | 0.00 | 0.72 | 0.00 | 42 | 1016.0 |
| 20260507132017 | 51 | 157 | 2.0 | 6.0 | 0.00 | 0.72 | 0.00 | 43 | 1016.0 |
| 20260507131517 | 50 | 225 | 3.0 | 4.0 | 0.00 | 0.72 | 0.00 | 44 | 1016.0 |
| 20260507131017 | 51 | 135 | 3.0 | 5.0 | 0.00 | 0.72 | 0.00 | 40 | 1015.9 |
| 20260507130518 | 51 | 180 | 2.0 | 5.0 | 0.00 | 0.72 | 0.00 | 40 | 1015.9 |
| 20260507130017 | 50 | 180 | 2.0 | 5.0 | 0.00 | 0.72 | 0.00 | 42 | 1015.8 |
| 20260507125537 | 50 | 180 | 3.0 | 7.0 | 0.00 | 0.72 | 0.00 | 43 | 1015.9 |
| 20260507125017 | 50 | 157 | 3.0 | 5.0 | 0.00 | 0.72 | 0.00 | 43 | 1015.7 |
| 20260507124517 | 50 | 157 | 3.0 | 4.0 | 0.00 | 0.72 | 0.00 | 42 | 1015.7 |
| 20260507124017 | 49 | 180 | 3.0 | 5.0 | 0.00 | 0.72 | 0.00 | 42 | 1015.7 |
| 20260507123537 | 50 | 225 | 3.0 | 5.0 | 0.00 | 0.72 | 0.00 | 42 | 1015.8 |
| 20260507123037 | 49 | 180 | 5.0 | 8.0 | 0.00 | 0.72 | 0.00 | 42 | 1015.7 |
| 20260507122517 | 47 | 90 | 4.0 | 8.0 | 0.00 | 0.72 | 0.00 | 45 | 1015.6 |
| 20260507122037 | 46 | 90 | 2.0 | 5.0 | 0.00 | 0.72 | 0.00 | 49 | 1015.7 |
| 20260507121537 | 45 | 67 | 3.0 | 5.0 | 0.00 | 0.72 | 0.00 | 49 | 1015.6 |
| 20260507121017 | 45 | 0.0 | 2.0 | 0.00 | 0.72 | 0.00 | 50 | 1015.6 | |
| 20260507120517 | 45 | 180 | 1.0 | 2.0 | 0.00 | 0.72 | 0.00 | 49 | 1015.5 |
| 20260507120018 | 44 | 0.0 | 2.0 | 0.00 | 0.72 | 0.00 | 50 | 1015.5 | |
| 20260507115517 | 45 | 202 | 2.0 | 5.0 | 0.00 | 0.72 | 0.00 | 51 | 1015.5 |
| 20260507115017 | 45 | 225 | 2.0 | 5.0 | 0.00 | 0.72 | 0.00 | 49 | 1015.5 |
| 20260507114517 | 46 | 202 | 4.0 | 7.0 | 0.00 | 0.72 | 0.00 | 49 | 1015.6 |
| 20260507114017 | 46 | 225 | 4.0 | 6.0 | 0.00 | 0.72 | 0.00 | 46 | 1015.6 |
| 20260507113517 | 47 | 225 | 5.0 | 8.0 | 0.00 | 0.72 | 0.00 | 45 | 1015.8 |
| 20260507113017 | 48 | 225 | 7.0 | 10.0 | 0.00 | 0.72 | 0.00 | 45 | 1015.9 |
| 20260507112537 | 48 | 225 | 6.0 | 9.0 | 0.00 | 0.72 | 0.00 | 44 | 1015.9 |
| 20260507112018 | 49 | 202 | 6.0 | 10.0 | 0.00 | 0.72 | 0.00 | 42 | 1015.9 |
| 20260507111517 | 49 | 202 | 6.0 | 9.0 | 0.00 | 0.72 | 0.00 | 42 | 1015.9 |
| 20260507111017 | 50 | 202 | 6.0 | 9.0 | 0.00 | 0.72 | 0.00 | 40 | 1015.9 |
| 20260507110517 | 49 | 180 | 4.0 | 8.0 | 0.00 | 0.72 | 0.00 | 42 | 1015.8 |
| 20260507110017 | 48 | 225 | 4.0 | 5.0 | 0.00 | 0.72 | 0.00 | 42 | 1015.9 |
| 20260507105517 | 47 | 247 | 3.0 | 5.0 | 0.00 | 0.72 | 0.00 | 46 | 1015.9 |
| 20260507105017 | 47 | 225 | 5.0 | 7.0 | 0.00 | 0.72 | 0.00 | 45 | 1015.9 |
| 20260507104517 | 46 | 247 | 7.0 | 10.0 | 0.00 | 0.72 | 0.00 | 47 | 1015.9 |
| 20260507104037 | 46 | 225 | 7.0 | 9.0 | 0.00 | 0.72 | 0.00 | 50 | 1015.9 |
| 20260507103517 | 46 | 225 | 7.0 | 9.0 | 0.00 | 0.72 | 0.00 | 48 | 1016.0 |
| 20260507103017 | 46 | 247 | 7.0 | 9.0 | 0.00 | 0.72 | 0.00 | 48 | 1015.9 |
| 20260507102516 | 46 | 225 | 9.0 | 12.0 | 0.00 | 0.72 | 0.00 | 48 | 1015.9 |
| 20260507102017 | 47 | 225 | 11.0 | 17.0 | 0.00 | 0.72 | 0.00 | 46 | 1015.8 |
| 20260507101517 | 46 | 225 | 8.0 | 13.0 | 0.00 | 0.72 | 0.00 | 47 | 1015.9 |
| 20260507101017 | 47 | 225 | 8.0 | 10.0 | 0.00 | 0.72 | 0.00 | 47 | 1016.2 |
| 20260507100517 | 48 | 247 | 7.0 | 10.0 | 0.00 | 0.72 | 0.00 | 43 | 1016.3 |
| 20260507100017 | 48 | 225 | 4.0 | 8.0 | 0.00 | 0.72 | 0.00 | 43 | 1016.4 |
| 20260507095516 | 48 | 202 | 4.0 | 8.0 | 0.00 | 0.72 | 0.00 | 44 | 1016.5 |
| 20260507095016 | 48 | 202 | 4.0 | 11.0 | 0.00 | 0.72 | 0.00 | 44 | 1016.3 |
| 20260507094517 | 46 | 225 | 2.0 | 9.0 | 0.00 | 0.72 | 0.00 | 45 | 1016.3 |
| 20260507094036 | 47 | 202 | 1.0 | 3.0 | 0.00 | 0.72 | 0.00 | 44 | 1016.4 |
| 20260507093517 | 47 | 225 | 2.0 | 5.0 | 0.00 | 0.72 | 0.00 | 45 | 1016.6 |
| 20260507093017 | 47 | 270 | 3.0 | 6.0 | 0.00 | 0.72 | 0.00 | 45 | 1016.5 |
| 20260507092516 | 45 | 337 | 2.0 | 4.0 | 0.00 | 0.72 | 0.00 | 48 | 1016.6 |
| 20260507092016 | 41 | 337 | 3.0 | 5.0 | 0.00 | 0.72 | 0.00 | 54 | 1016.3 |
| 20260507091516 | 42 | 247 | 2.0 | 4.0 | 0.00 | 0.72 | 0.00 | 55 | 1016.3 |
| 20260507091016 | 42 | 247 | 1.0 | 3.0 | 0.00 | 0.72 | 0.00 | 54 | 1016.3 |
| 20260507090516 | 41 | 247 | 1.0 | 2.0 | 0.00 | 0.72 | 0.00 | 55 | 1016.2 |
| 20260507090017 | 42 | 247 | 2.0 | 3.0 | 0.00 | 0.72 | 0.00 | 52 | 1016.1 |
| 20260507085517 | 43 | 247 | 1.0 | 2.0 | 0.00 | 0.72 | 0.00 | 49 | 1016.4 |
| 20260507085016 | 43 | 247 | 1.0 | 2.0 | 0.00 | 0.72 | 0.00 | 49 | 1016.1 |
| 20260507084517 | 44 | 0.0 | 1.0 | 0.00 | 0.72 | 0.00 | 49 | 1016.2 | |
| 20260507084016 | 44 | 0.0 | 2.0 | 0.00 | 0.72 | 0.00 | 49 | 1016.1 | |
| 20260507083557 | 43 | 0.0 | 1.0 | 0.00 | 0.72 | 0.00 | 52 | 1016.1 | |
| 20260507083016 | 42 | 247 | 2.0 | 5.0 | 0.00 | 0.72 | 0.00 | 57 | 1016.2 |
| 20260507082537 | 40 | 270 | 3.0 | 4.0 | 0.00 | 0.72 | 0.00 | 61 | 1016.2 |
| 20260507082017 | 38 | 270 | 3.0 | 5.0 | 0.00 | 0.72 | 0.00 | 68 | 1016.2 |
| 20260507081537 | 38 | 270 | 3.0 | 5.0 | 0.00 | 0.72 | 0.00 | 69 | 1016.1 |
| 20260507081016 | 37 | 247 | 4.0 | 5.0 | 0.00 | 0.72 | 0.00 | 77 | 1016.0 |
| 20260507080536 | 35 | 225 | 4.0 | 5.0 | 0.00 | 0.72 | 0.00 | 78 | 1016.1 |
| 20260507080017 | 33 | 225 | 3.0 | 4.0 | 0.00 | 0.72 | 0.00 | 83 | 1016.2 |
| 20260507075516 | 32 | 225 | 3.0 | 4.0 | 0.00 | 0.72 | 0.00 | 85 | 1016.1 |
| 20260507075016 | 32 | 225 | 2.0 | 3.0 | 0.00 | 0.72 | 0.00 | 84 | 1016.2 |
| 20260507074516 | 33 | 225 | 2.0 | 4.0 | 0.00 | 0.72 | 0.00 | 86 | 1016.4 |
| 20260507074016 | 32 | 247 | 2.0 | 4.0 | 0.00 | 0.72 | 0.00 | 89 | 1016.3 |
| 20260507073516 | 31 | 0.0 | 2.0 | 0.00 | 0.72 | 0.00 | 88 | 1016.3 | |
| 20260507073016 | 31 | 112 | 1.0 | 3.0 | 0.00 | 0.72 | 0.00 | 88 | 1016.3 |
| 20260507072516 | 31 | 112 | 2.0 | 3.0 | 0.00 | 0.72 | 0.00 | 88 | 1016.3 |
| 20260507072037 | 32 | 112 | 2.0 | 3.0 | 0.00 | 0.72 | 0.00 | 88 | 1016.4 |
| 20260507071536 | 31 | 0.0 | 0.0 | 0.00 | 0.72 | 0.00 | 87 | 1016.4 | |
| 20260507071016 | 32 | 225 | 1.0 | 2.0 | 0.00 | 0.72 | 0.00 | 88 | 1016.3 |
| 20260507070516 | 31 | 0.0 | 2.0 | 0.00 | 0.72 | 0.00 | 88 | 1016.4 | |
| 20260507070016 | 32 | 225 | 1.0 | 3.0 | 0.00 | 0.72 | 0.00 | 88 | 1016.5 |
| 20260507065517 | 32 | 225 | 1.0 | 3.0 | 0.00 | 0.72 | 0.00 | 88 | 1016.6 |
| 20260507065016 | 32 | 0.0 | 1.0 | 0.00 | 0.72 | 0.00 | 87 | 1016.6 | |
| 20260507064516 | 33 | 225 | 1.0 | 2.0 | 0.00 | 0.72 | 0.00 | 88 | 1016.8 |
| 20260507064017 | 33 | 225 | 1.0 | 2.0 | 0.00 | 0.72 | 0.00 | 87 | 1016.8 |
| 20260507063516 | 33 | 202 | 2.0 | 3.0 | 0.00 | 0.72 | 0.00 | 88 | 1016.9 |
| 20260507063016 | 33 | 202 | 3.0 | 4.0 | 0.00 | 0.72 | 0.00 | 87 | 1017.0 |
| 20260507062516 | 33 | 202 | 3.0 | 5.0 | 0.00 | 0.72 | 0.00 | 87 | 1017.1 |
| 20260507062017 | 33 | 202 | 3.0 | 5.0 | 0.00 | 0.72 | 0.00 | 88 | 1017.1 |
| 20260507061517 | 32 | 202 | 4.0 | 5.0 | 0.00 | 0.72 | 0.00 | 88 | 1017.2 |
| 20260507061016 | 32 | 202 | 4.0 | 5.0 | 0.00 | 0.72 | 0.00 | 89 | 1017.3 |
| 20260507060516 | 32 | 157 | 2.0 | 5.0 | 0.00 | 0.72 | 0.00 | 89 | 1017.4 |
| 20260507060017 | 32 | 0.0 | 2.0 | 0.00 | 0.72 | 0.00 | 90 | 1017.4 | |
| 20260507055537 | 32 | 157 | 2.0 | 3.0 | 0.00 | 0.72 | 0.72 | 90 | 1017.4 |
| 20260507055017 | 32 | 225 | 1.0 | 3.0 | 0.00 | 0.72 | 0.72 | 90 | 1017.6 |
| 20260507054517 | 32 | 225 | 2.0 | 3.0 | 0.00 | 0.72 | 0.72 | 90 | 1017.5 |
| 20260507054017 | 32 | 225 | 2.0 | 3.0 | 0.00 | 0.72 | 0.72 | 90 | 1017.5 |
| 20260507053517 | 32 | 202 | 3.0 | 4.0 | 0.00 | 0.72 | 0.72 | 90 | 1017.4 |
| 20260507053017 | 31 | 202 | 3.0 | 5.0 | 0.00 | 0.72 | 0.72 | 90 | 1017.6 |
| 20260507052537 | 31 | 0.0 | 0.0 | 0.00 | 0.72 | 0.72 | 89 | 1017.6 | |
| 20260507052017 | 31 | 0.0 | 0.0 | 0.00 | 0.72 | 0.72 | 89 | 1017.6 | |
| 20260507051517 | 31 | 0.0 | 0.0 | 0.00 | 0.72 | 0.72 | 89 | 1018.0 | |
| 20260507051017 | 31 | 0.0 | 0.0 | 0.00 | 0.72 | 0.72 | 88 | 1018.0 | |
| 20260507050517 | 31 | 0.0 | 0.0 | 0.00 | 0.72 | 0.72 | 87 | 1017.9 | |
| 20260507050017 | 32 | 0.0 | 0.0 | 0.00 | 0.72 | 0.72 | 87 | 1017.9 | |
| 20260507045517 | 32 | 0.0 | 0.0 | 0.00 | 0.72 | 0.72 | 87 | 1018.0 | |
| 20260507045037 | 32 | 247 | 1.0 | 4.0 | 0.00 | 0.72 | 0.72 | 86 | 1018.0 |
| 20260507044517 | 32 | 247 | 2.0 | 3.0 | 0.00 | 0.72 | 0.72 | 86 | 1018.0 |
| 20260507044017 | 32 | 247 | 3.0 | 6.0 | 0.00 | 0.72 | 0.72 | 87 | 1018.1 |
| 20260507043517 | 32 | 247 | 2.0 | 3.0 | 0.00 | 0.72 | 0.72 | 86 | 1018.0 |
| 20260507043037 | 32 | 247 | 2.0 | 3.0 | 0.00 | 0.72 | 0.72 | 86 | 1018.2 |
| 20260507042517 | 32 | 247 | 3.0 | 4.0 | 0.00 | 0.72 | 0.72 | 86 | 1018.3 |
| 20260507042017 | 32 | 247 | 2.0 | 3.0 | 0.00 | 0.72 | 0.72 | 86 | 1018.4 |
| 20260507041517 | 33 | 247 | 1.0 | 3.0 | 0.00 | 0.72 | 0.72 | 85 | 1018.3 |
| 20260507041019 | 33 | 247 | 2.0 | 3.0 | 0.00 | 0.72 | 0.72 | 85 | 1018.4 |
| 20260507040619 | 33 | 247 | 3.0 | 5.0 | 0.00 | 0.72 | 0.72 | 86 | 1018.4 |
| 20260507040037 | 33 | 247 | 2.0 | 3.0 | 0.00 | 0.72 | 0.72 | 86 | 1018.4 |
| 20260507035517 | 33 | 247 | 1.0 | 2.0 | 0.00 | 0.72 | 0.72 | 87 | 1018.5 |
| 20260507035017 | 32 | 247 | 2.0 | 3.0 | 0.00 | 0.72 | 0.72 | 87 | 1018.4 |
| 20260507034517 | 32 | 247 | 3.0 | 3.0 | 0.00 | 0.72 | 0.72 | 87 | 1018.4 |
| 20260507034037 | 32 | 247 | 3.0 | 3.0 | 0.00 | 0.72 | 0.72 | 86 | 1018.5 |
| 20260507033517 | 32 | 247 | 3.0 | 3.0 | 0.00 | 0.72 | 0.72 | 86 | 1018.6 |
| 20260507033017 | 32 | 247 | 1.0 | 3.0 | 0.00 | 0.72 | 0.72 | 86 | 1018.6 |
| 20260507032517 | 32 | 247 | 1.0 | 2.0 | 0.00 | 0.72 | 0.72 | 85 | 1018.8 |
| 20260507032017 | 32 | 247 | 1.0 | 2.0 | 0.00 | 0.72 | 0.72 | 86 | 1018.7 |
| 20260507031517 | 32 | 247 | 2.0 | 3.0 | 0.00 | 0.72 | 0.72 | 84 | 1018.5 |
| 20260507031017 | 32 | 247 | 2.0 | 3.0 | 0.00 | 0.72 | 0.72 | 84 | 1018.5 |
| 20260507030537 | 33 | 0.0 | 0.0 | 0.00 | 0.72 | 0.72 | 83 | 1018.7 | |
| 20260507030017 | 34 | 0.0 | 0.0 | 0.00 | 0.72 | 0.72 | 82 | 1018.6 | |
| 20260507025517 | 34 | 0.0 | 0.0 | 0.00 | 0.72 | 0.72 | 82 | 1018.6 | |
| 20260507025017 | 34 | 0.0 | 1.0 | 0.00 | 0.72 | 0.72 | 80 | 1018.5 | |
| 20260507024517 | 35 | 247 | 2.0 | 3.0 | 0.00 | 0.72 | 0.72 | 80 | 1018.5 |
| 20260507024039 | 35 | 247 | 2.0 | 3.0 | 0.00 | 0.72 | 0.72 | 80 | 1018.5 |
| 20260507023517 | 36 | 247 | 2.0 | 2.0 | 0.00 | 0.72 | 0.72 | 77 | 1018.5 |
| 20260507023017 | 36 | 247 | 2.0 | 3.0 | 0.00 | 0.72 | 0.72 | 77 | 1018.4 |
| 20260507022516 | 37 | 180 | 1.0 | 3.0 | 0.00 | 0.72 | 0.72 | 76 | 1018.4 |
| 20260507022017 | 37 | 180 | 2.0 | 3.0 | 0.00 | 0.72 | 0.72 | 75 | 1018.5 |
| 20260507021517 | 37 | 0.0 | 1.0 | 0.00 | 0.72 | 0.72 | 74 | 1018.4 | |
| 20260507021017 | 38 | 157 | 1.0 | 2.0 | 0.00 | 0.72 | 0.72 | 72 | 1018.5 |
| 20260507020517 | 38 | 157 | 1.0 | 3.0 | 0.00 | 0.72 | 0.72 | 72 | 1018.4 |
| 20260507020017 | 38 | 157 | 1.0 | 2.0 | 0.00 | 0.72 | 0.72 | 71 | 1018.4 |
| 20260507015517 | 38 | 135 | 1.0 | 3.0 | 0.00 | 0.72 | 0.72 | 70 | 1018.4 |
| 20260507015017 | 38 | 135 | 3.0 | 5.0 | 0.00 | 0.72 | 0.72 | 70 | 1018.4 |
| 20260507014516 | 38 | 157 | 2.0 | 5.0 | 0.00 | 0.72 | 0.72 | 70 | 1018.4 |
| 20260507014057 | 39 | 157 | 3.0 | 5.0 | 0.00 | 0.72 | 0.72 | 69 | 1018.4 |
| 20260507013517 | 39 | 135 | 4.0 | 6.0 | 0.00 | 0.72 | 0.72 | 68 | 1018.4 |
| 20260507013016 | 39 | 180 | 4.0 | 7.0 | 0.00 | 0.72 | 0.72 | 69 | 1018.4 |
| 20260507012518 | 39 | 180 | 5.0 | 8.0 | 0.00 | 0.72 | 0.72 | 69 | 1018.4 |
| 20260507012016 | 39 | 135 | 4.0 | 7.0 | 0.00 | 0.72 | 0.72 | 68 | 1018.3 |
| 20260507011557 | 39 | 180 | 4.0 | 7.0 | 0.00 | 0.72 | 0.72 | 68 | 1018.3 |
| 20260507010536 | 39 | 180 | 5.0 | 9.0 | 0.00 | 0.73 | 0.72 | 67 | 1018.3 |
| 20260507010037 | 39 | 135 | 4.0 | 6.0 | 0.00 | 0.73 | 0.72 | 67 | 1018.4 |
| 20260507005516 | 40 | 157 | 4.0 | 8.0 | 0.00 | 0.73 | 0.72 | 67 | 1018.4 |
| 20260507005016 | 40 | 180 | 6.0 | 9.0 | 0.00 | 0.73 | 0.72 | 67 | 1018.5 |
| 20260507004517 | 40 | 180 | 6.0 | 11.0 | 0.00 | 0.73 | 0.72 | 67 | 1018.5 |
| 20260507004017 | 40 | 180 | 5.0 | 8.0 | 0.00 | 0.73 | 0.72 | 67 | 1018.5 |
| 20260507003516 | 40 | 157 | 5.0 | 9.0 | 0.00 | 0.73 | 0.72 | 67 | 1018.5 |
| 20260507003016 | 40 | 135 | 4.0 | 7.0 | 0.00 | 0.73 | 0.72 | 67 | 1018.6 |
| 20260507002537 | 40 | 180 | 5.0 | 7.0 | 0.00 | 0.73 | 0.72 | 68 | 1018.5 |
| 20260507002016 | 40 | 157 | 5.0 | 8.0 | 0.00 | 0.73 | 0.72 | 67 | 1018.7 |
| 20260507001516 | 40 | 180 | 5.0 | 8.0 | 0.00 | 0.73 | 0.72 | 68 | 1018.7 |
| 20260507001017 | 40 | 135 | 5.0 | 8.0 | 0.00 | 0.73 | 0.72 | 66 | 1018.8 |
| 20260507000516 | 40 | 157 | 5.0 | 7.0 | 0.00 | 0.73 | 0.72 | 66 | 1018.8 |
| 20260507000017 | 40 | 135 | 5.0 | 8.0 | 0.00 | 0.74 | 0.72 | 68 | 1018.9 |
| 20260506235517 | 40 | 157 | 6.0 | 14.0 | 0.00 | 0.74 | 0.72 | 66 | 1018.9 |
| 20260506235016 | 40 | 157 | 5.0 | 9.0 | 0.00 | 0.74 | 0.72 | 67 | 1018.9 |
| 20260506234516 | 39 | 180 | 7.0 | 11.0 | 0.00 | 0.74 | 0.72 | 68 | 1019.0 |
| 20260506234016 | 40 | 180 | 6.0 | 10.0 | 0.00 | 0.74 | 0.72 | 66 | 1019.0 |
| 20260506233516 | 40 | 135 | 5.0 | 9.0 | 0.00 | 0.74 | 0.72 | 68 | 1019.1 |
| 20260506233017 | 40 | 135 | 4.0 | 8.0 | 0.00 | 0.74 | 0.72 | 66 | 1019.1 |
| 20260506232516 | 40 | 135 | 4.0 | 7.0 | 0.00 | 0.74 | 0.72 | 67 | 1019.1 |
| 20260506232037 | 39 | 135 | 5.0 | 10.0 | 0.00 | 0.74 | 0.72 | 68 | 1019.3 |
| 20260506231516 | 39 | 135 | 7.0 | 10.0 | 0.00 | 0.74 | 0.72 | 68 | 1019.2 |
| 20260506231036 | 39 | 180 | 5.0 | 8.0 | 0.00 | 0.74 | 0.72 | 67 | 1019.2 |
| 20260506230536 | 39 | 180 | 6.0 | 10.0 | 0.00 | 0.74 | 0.72 | 68 | 1019.1 |
| 20260506230017 | 39 | 180 | 6.0 | 10.0 | 0.00 | 0.74 | 0.72 | 68 | 1019.1 |
| 20260506225516 | 39 | 180 | 5.0 | 9.0 | 0.00 | 0.74 | 0.72 | 68 | 1019.0 |
| 20260506225016 | 39 | 157 | 5.0 | 7.0 | 0.00 | 0.74 | 0.72 | 68 | 1019.3 |
| 20260506224516 | 39 | 180 | 4.0 | 8.0 | 0.00 | 0.74 | 0.72 | 69 | 1019.3 |
| 20260506224016 | 38 | 157 | 5.0 | 8.0 | 0.00 | 0.74 | 0.72 | 70 | 1019.3 |
| 20260506223517 | 38 | 135 | 6.0 | 10.0 | 0.00 | 0.74 | 0.72 | 67 | 1019.4 |
| 20260506223017 | 39 | 135 | 4.0 | 8.0 | 0.00 | 0.74 | 0.72 | 69 | 1019.4 |
| 20260506222516 | 39 | 135 | 4.0 | 9.0 | 0.00 | 0.74 | 0.72 | 70 | 1019.4 |
| 20260506222016 | 39 | 180 | 6.0 | 11.0 | 0.00 | 0.74 | 0.72 | 69 | 1019.6 |
| 20260506221517 | 39 | 180 | 4.0 | 8.0 | 0.00 | 0.74 | 0.72 | 71 | 1019.6 |
| 20260506221016 | 38 | 202 | 6.0 | 8.0 | 0.00 | 0.74 | 0.72 | 69 | 1019.7 |
| 20260506220536 | 38 | 180 | 6.0 | 9.0 | 0.00 | 0.74 | 0.72 | 71 | 1019.9 |
| 20260506220016 | 38 | 202 | 6.0 | 8.0 | 0.00 | 0.74 | 0.72 | 70 | 1020.0 |
| 20260506215516 | 38 | 180 | 5.0 | 8.0 | 0.00 | 0.74 | 0.72 | 70 | 1020.1 |
| 20260506215036 | 38 | 135 | 3.0 | 7.0 | 0.00 | 0.74 | 0.72 | 68 | 1020.0 |
| 20260506214536 | 37 | 180 | 4.0 | 8.0 | 0.00 | 0.74 | 0.72 | 70 | 1020.1 |
| 20260506214016 | 38 | 157 | 4.0 | 6.0 | 0.00 | 0.74 | 0.72 | 67 | 1020.2 |
| 20260506213516 | 38 | 180 | 4.0 | 6.0 | 0.00 | 0.74 | 0.72 | 68 | 1020.3 |
| 20260506213016 | 38 | 180 | 5.0 | 9.0 | 0.00 | 0.75 | 0.72 | 69 | 1020.3 |
| 20260506212516 | 38 | 180 | 5.0 | 7.0 | 0.00 | 0.75 | 0.72 | 68 | 1020.4 |
| 20260506212056 | 38 | 112 | 2.0 | 6.0 | 0.00 | 0.75 | 0.72 | 69 | 1020.3 |
| 20260506211516 | 38 | 180 | 1.0 | 3.0 | 0.00 | 0.76 | 0.72 | 69 | 1020.5 |
| 20260506211016 | 37 | 202 | 1.0 | 3.0 | 0.00 | 0.76 | 0.72 | 69 | 1020.5 |
| 20260506210516 | 38 | 202 | 1.0 | 2.0 | 0.00 | 0.77 | 0.72 | 69 | 1020.6 |
| 20260506210016 | 38 | 0.0 | 1.0 | 0.00 | 0.78 | 0.72 | 71 | 1020.7 | |
| 20260506205516 | 37 | 0.0 | 1.0 | 0.00 | 0.78 | 0.72 | 70 | 1020.7 | |
| 20260506205016 | 38 | 0.0 | 1.0 | 0.00 | 0.79 | 0.72 | 69 | 1020.8 | |
| 20260506204516 | 37 | 0.0 | 2.0 | 0.00 | 0.80 | 0.72 | 71 | 1020.9 | |
| 20260506204016 | 37 | 202 | 1.0 | 2.0 | 0.00 | 0.80 | 0.72 | 72 | 1020.9 |
| 20260506203516 | 36 | 202 | 1.0 | 2.0 | 0.00 | 0.80 | 0.72 | 72 | 1020.9 |
| 20260506203016 | 36 | 0.0 | 2.0 | 0.00 | 0.80 | 0.72 | 70 | 1021.0 | |
| 20260506202536 | 36 | 180 | 1.0 | 2.0 | 0.01 | 0.80 | 0.72 | 69 | 1021.0 |
| 20260506202017 | 36 | 0.0 | 2.0 | 0.03 | 0.80 | 0.72 | 68 | 1021.1 |